ARIANE 44LP DEB, 33542

Orbit data source: Space-Track

ARIANE 44LP DEB, 33542 is space debris in HEO originally from a launch on Sun, 11 Dec 1988 UTC launched from the French Guiana (FRGUI). Debris objects in space refer to the collection of defunct objects orbiting the Earth. Examples of debris include non-operational satellites, rocket bodies, and fragments generated from explosions, collisions, or faulty payload assembly.

Loading next visibility...
Identifier
33542, 1988-109R
Orbit
HEO
Country
Flag of FRFR
Related business
Manufacturer
Unknown
Mission
Spacecraft
Bus & Motor
Unknown
Mass
Unknown
Launch date (UTC)
1988-12-11 (37 years ago)
Launch vehicle
Unknown
Launch site
French Guiana (FRGUI)
Object type
Payload
Rocket body
Debris
Shape & HBR
Unknown shape, 1.1 m
Radar Cross Section
Medium (>0.1 m² and <1 m²)

Expand to show TLE details & history
Last TLE update: 6 hours ago

TLE from 6 hours ago
0 ARIANE 44LP DEB
1 33542U 88109R   26035.81179558  .00000028  00000-0  23128-2 0  9991
2 33542   6.8908 257.3962 7140444  17.6317 316.8349  2.24380417168610
Epoch: 2026-02-04T19:28Z
TLE epoch observation values (Epoch: 2026-02-04T19:28:59.138Z)
Latitude
-6.29251°
Longitude
76.54275°
Altitude
16,429.578 km
Speed
4.333 km/s
True Right ascension
09h 35m 02s
True Declination
-6° 16' 51"
Sunlit
Object was in daylight at epoch
Visualization orbit readout
Latitude
Unknown
Longitude
Unknown
Altitude
Unknown
Speed
Unknown
Apparent Right ascension
Unknown
Apparent Declination
Unknown
Sunlit
N/A
Visualization observer readout
Local Sidereal Time
03:04:15
Azimuth
Unknown
Elevation
Unknown
Doppler factor
Unknown
Orbital elements
Apogee altitude
35,874.842 km
Perigee altitude
670.966 km
Semi-major axis
24,651.041 km
Eccentricity
0.71404
Inclination
6.8908°
RAAN
257.3962°
Arg. of periapsis
17.6317°
True anomaly
228.92153°
Mean anomaly
316.8349°
Eccentric anomaly
276.15934°
Mean motion
0.56078 °/min
Orbital period
641.97 mins
BSTAR
0.0023128
Loading maneuver chart data...
Computing Atmospheric mass density...
Loading historical data...
Loading historical data...
Loading historical data...
Loading historical data...
Loading historical data...
Loading historical data...
Loading historical data...

Documentation

Showing up to 5 results
|